Year,Month,Day,Hour,Minute,Value (Times are PST for temperature in C)
2009,09,30,00,00,9.60
2009,09,30,00,01,9.60
2009,09,30,00,02,9.60
2009,09,30,00,03,9.60
2009,09,30,00,04,9.60
2009,09,30,00,05,9.60
2009,09,30,00,06,9.60
2009,09,30,00,07,9.60
2009,09,30,00,08,9.60
2009,09,30,00,09,9.60
2009,09,30,00,10,9.50
2009,09,30,00,11,9.50
2009,09,30,00,12,9.50
2009,09,30,00,18,9.50
2009,09,30,00,19,9.40
2009,09,30,00,20,9.40
2009,09,30,00,21,9.40
2009,09,30,00,22,9.40
2009,09,30,00,23,9.40
2009,09,30,00,24,9.40
2009,09,30,00,25,9.30
2009,09,30,00,26,9.30
2009,09,30,00,27,9.30
2009,09,30,00,28,9.30
2009,09,30,00,29,9.40
2009,09,30,00,30,9.40
2009,09,30,00,31,9.30
2009,09,30,00,32,9.30
2009,09,30,00,33,9.40
2009,09,30,00,34,9.40
2009,09,30,00,35,9.40
2009,09,30,00,36,9.40
2009,09,30,00,37,9.40
2009,09,30,00,38,9.40
2009,09,30,00,39,9.40
2009,09,30,00,40,9.30
2009,09,30,00,41,9.30
2009,09,30,00,42,9.30
2009,09,30,00,43,9.30
2009,09,30,00,44,9.30
2009,09,30,00,45,9.40
2009,09,30,00,46,9.40
2009,09,30,00,47,9.40
2009,09,30,00,48,9.40
2009,09,30,00,49,9.40
2009,09,30,00,50,9.40
2009,09,30,00,51,9.40
2009,09,30,00,52,9.40
2009,09,30,00,53,9.40
2009,09,30,00,54,9.40
2009,09,30,00,55,9.40
2009,09,30,00,56,9.40
2009,09,30,00,57,9.40
2009,09,30,00,58,9.40
2009,09,30,00,59,9.40
2009,09,30,01,00,9.40
2009,09,30,01,01,9.30
2009,09,30,01,02,9.30
2009,09,30,01,03,9.30
2009,09,30,01,04,9.30
2009,09,30,01,05,9.30
2009,09,30,01,06,9.30
2009,09,30,01,07,9.30
2009,09,30,01,08,9.30
2009,09,30,01,09,9.30
2009,09,30,01,10,9.30
2009,09,30,01,11,9.30
2009,09,30,01,12,9.30
2009,09,30,01,13,9.30
2009,09,30,01,14,9.30
2009,09,30,01,15,9.30
2009,09,30,01,16,9.30
2009,09,30,01,17,9.30
2009,09,30,01,18,9.30
2009,09,30,01,19,9.30
2009,09,30,01,20,9.30
2009,09,30,01,21,9.30
2009,09,30,01,22,9.40
2009,09,30,01,23,9.40
2009,09,30,01,24,9.40
2009,09,30,01,25,9.40
2009,09,30,01,26,9.40
2009,09,30,01,27,9.40
2009,09,30,01,28,9.40
2009,09,30,01,29,9.40
2009,09,30,01,30,9.40
2009,09,30,01,31,9.40
2009,09,30,01,32,9.50
2009,09,30,01,33,9.50
2009,09,30,01,34,9.50
2009,09,30,01,35,9.50
2009,09,30,01,36,9.60
2009,09,30,01,37,9.60
2009,09,30,01,38,9.60
2009,09,30,01,39,9.60
2009,09,30,01,40,9.60
2009,09,30,01,41,9.60
2009,09,30,01,42,9.60
2009,09,30,01,43,9.60
2009,09,30,01,44,9.50
2009,09,30,01,45,9.60
2009,09,30,01,46,9.60
2009,09,30,01,47,9.60
2009,09,30,01,48,9.60
2009,09,30,01,49,9.60
2009,09,30,01,50,9.60
2009,09,30,01,51,9.60
2009,09,30,01,52,9.60
2009,09,30,01,53,9.60
2009,09,30,01,54,9.60
2009,09,30,01,55,9.60
2009,09,30,01,56,9.60
2009,09,30,01,57,9.60
2009,09,30,01,58,9.50
2009,09,30,01,59,9.50
2009,09,30,02,00,9.50
2009,09,30,02,01,9.50
2009,09,30,02,02,9.40
2009,09,30,02,03,9.40
2009,09,30,02,04,9.40
2009,09,30,02,05,9.40
2009,09,30,02,06,9.40
2009,09,30,02,07,9.30
2009,09,30,02,08,9.30
2009,09,30,02,09,9.30
2009,09,30,02,10,9.30
2009,09,30,02,11,9.30
2009,09,30,02,12,9.30
2009,09,30,02,13,9.30
2009,09,30,02,14,9.30
2009,09,30,02,15,9.30
2009,09,30,02,16,9.30
2009,09,30,02,17,9.30
2009,09,30,02,18,9.30
2009,09,30,02,19,9.30
2009,09,30,02,20,9.30
2009,09,30,02,21,9.30
2009,09,30,02,22,9.30
2009,09,30,02,23,9.30
2009,09,30,02,24,9.30
2009,09,30,02,25,9.30
2009,09,30,02,26,9.30
2009,09,30,02,27,9.30
2009,09,30,02,28,9.30
2009,09,30,02,29,9.30
2009,09,30,02,30,9.30
2009,09,30,02,31,9.30
2009,09,30,02,32,9.30
2009,09,30,02,33,9.30
2009,09,30,02,34,9.30
2009,09,30,02,35,9.30
2009,09,30,02,36,9.30
2009,09,30,02,37,9.30
2009,09,30,02,38,9.30
2009,09,30,02,39,9.30
2009,09,30,02,40,9.30
2009,09,30,02,41,9.30
2009,09,30,02,42,9.30
2009,09,30,02,43,9.30
2009,09,30,02,44,9.30
2009,09,30,02,45,9.40
2009,09,30,02,46,9.40
2009,09,30,02,47,9.30
2009,09,30,02,48,9.30
2009,09,30,02,49,9.40
2009,09,30,02,50,9.40
2009,09,30,02,51,9.30
2009,09,30,02,52,9.30
2009,09,30,02,53,9.30
2009,09,30,02,54,9.30
2009,09,30,02,55,9.30
2009,09,30,02,56,9.30
2009,09,30,02,57,9.30
2009,09,30,02,58,9.30
2009,09,30,02,59,9.30
2009,09,30,03,00,9.30
2009,09,30,03,01,9.30
2009,09,30,03,02,9.30
2009,09,30,03,03,9.20
2009,09,30,03,04,9.20
2009,09,30,03,05,9.20
2009,09,30,03,06,9.20
2009,09,30,03,07,9.20
2009,09,30,03,08,9.20
2009,09,30,03,09,9.10
2009,09,30,03,10,9.10
2009,09,30,03,11,9.00
2009,09,30,03,12,8.90
2009,09,30,03,13,8.90
2009,09,30,03,14,8.80
2009,09,30,03,15,8.80
2009,09,30,03,16,8.70
2009,09,30,03,17,8.60
2009,09,30,03,18,8.60
2009,09,30,03,19,8.50
2009,09,30,03,20,8.50
2009,09,30,03,21,8.40
2009,09,30,03,22,8.40
2009,09,30,03,23,8.30
2009,09,30,03,24,8.30
2009,09,30,03,25,8.30
2009,09,30,03,26,8.30
2009,09,30,03,27,8.30
2009,09,30,03,28,8.30
2009,09,30,03,29,8.30
2009,09,30,03,30,8.30
2009,09,30,03,31,8.20
2009,09,30,03,32,8.20
2009,09,30,03,33,8.20
2009,09,30,03,34,8.20
2009,09,30,03,35,8.20
2009,09,30,03,36,8.20
2009,09,30,03,37,8.20
2009,09,30,03,38,8.20
2009,09,30,03,39,8.20
2009,09,30,03,40,8.20
2009,09,30,03,41,8.10
2009,09,30,03,42,8.10
2009,09,30,03,43,8.10
2009,09,30,03,44,8.10
2009,09,30,03,45,8.00
2009,09,30,03,46,8.00
2009,09,30,03,47,7.90
2009,09,30,03,48,7.90
2009,09,30,03,49,7.90
2009,09,30,03,50,7.90
2009,09,30,03,51,7.80
2009,09,30,03,52,7.80
2009,09,30,03,53,7.80
2009,09,30,03,54,7.80
2009,09,30,03,55,7.70
2009,09,30,03,56,7.70
2009,09,30,03,57,7.70
2009,09,30,03,58,7.70
2009,09,30,03,59,7.70
2009,09,30,04,00,7.70
2009,09,30,04,01,7.60
2009,09,30,04,02,7.60
2009,09,30,04,03,7.60
2009,09,30,04,04,7.60
2009,09,30,04,05,7.60
2009,09,30,04,06,7.60
2009,09,30,04,07,7.60
2009,09,30,04,08,7.60
2009,09,30,04,09,7.60
2009,09,30,04,10,7.60
2009,09,30,04,11,7.60
2009,09,30,04,12,7.50
2009,09,30,04,13,7.50
2009,09,30,04,14,7.50
2009,09,30,04,15,7.40
2009,09,30,04,16,7.40
2009,09,30,04,17,7.40
2009,09,30,04,18,7.40
2009,09,30,04,19,7.40
2009,09,30,04,20,7.40
2009,09,30,04,21,7.40
2009,09,30,04,22,7.40
2009,09,30,04,23,7.40
2009,09,30,04,24,7.40
2009,09,30,04,25,7.40
2009,09,30,04,26,7.40
2009,09,30,04,27,7.40
2009,09,30,04,28,7.40
2009,09,30,04,29,7.40
2009,09,30,04,30,7.40
2009,09,30,04,31,7.40
2009,09,30,04,32,7.30
2009,09,30,04,33,7.30
2009,09,30,04,34,7.30
2009,09,30,04,35,7.30
2009,09,30,04,36,7.30
2009,09,30,04,37,7.30
2009,09,30,04,38,7.20
2009,09,30,04,39,7.20
2009,09,30,04,40,7.20
2009,09,30,04,41,7.20
2009,09,30,04,42,7.20
2009,09,30,04,43,7.20
2009,09,30,04,44,7.20
2009,09,30,04,45,7.20
2009,09,30,04,46,7.20
2009,09,30,04,47,7.10
2009,09,30,04,48,7.10
2009,09,30,04,49,7.10
2009,09,30,04,50,7.10
2009,09,30,04,51,7.00
2009,09,30,04,52,7.00
2009,09,30,04,53,7.00
2009,09,30,04,54,7.00
2009,09,30,04,55,7.00
2009,09,30,04,56,7.00
2009,09,30,04,57,7.00
2009,09,30,04,58,7.00
2009,09,30,04,59,7.00
2009,09,30,05,00,7.00
2009,09,30,05,01,6.90
2009,09,30,05,02,6.90
2009,09,30,05,03,6.90
2009,09,30,05,04,6.90
2009,09,30,05,05,6.90
2009,09,30,05,06,6.80
2009,09,30,05,07,6.80
2009,09,30,05,08,6.80
2009,09,30,05,09,6.80
2009,09,30,05,10,6.80
2009,09,30,05,11,6.80
2009,09,30,05,12,6.70
2009,09,30,05,13,6.70
2009,09,30,05,14,6.70
2009,09,30,05,15,6.70
2009,09,30,05,16,6.60
2009,09,30,05,17,6.60
2009,09,30,05,18,6.60
2009,09,30,05,19,6.60
2009,09,30,05,20,6.60
2009,09,30,05,21,6.60
2009,09,30,05,22,6.60
2009,09,30,05,23,6.50
2009,09,30,05,24,6.50
2009,09,30,05,25,6.50
2009,09,30,05,26,6.50
2009,09,30,05,27,6.50
2009,09,30,05,28,6.50
2009,09,30,05,29,6.50
2009,09,30,05,30,6.40
2009,09,30,05,31,6.40
2009,09,30,05,32,6.40
2009,09,30,05,33,6.40
2009,09,30,05,34,6.30
2009,09,30,05,35,6.30
2009,09,30,05,36,6.30
2009,09,30,05,37,6.30
2009,09,30,05,38,6.30
2009,09,30,05,39,6.30
2009,09,30,05,40,6.30
2009,09,30,05,41,6.30
2009,09,30,05,42,6.20
2009,09,30,05,43,6.20
2009,09,30,05,44,6.20
2009,09,30,05,45,6.20
2009,09,30,05,46,6.20
2009,09,30,05,47,6.20
2009,09,30,05,48,6.20
2009,09,30,05,49,6.20
2009,09,30,05,50,6.20
2009,09,30,05,51,6.30
2009,09,30,05,52,6.30
2009,09,30,05,53,6.30
2009,09,30,05,54,6.30
2009,09,30,05,55,6.30
2009,09,30,05,56,6.40
2009,09,30,05,57,6.40
2009,09,30,05,58,6.40
2009,09,30,05,59,6.40
2009,09,30,06,00,6.40
2009,09,30,06,01,6.50
2009,09,30,06,02,6.50
2009,09,30,06,03,6.50
2009,09,30,06,04,6.50
2009,09,30,06,05,6.50
2009,09,30,06,06,6.50
2009,09,30,06,07,6.50
2009,09,30,06,08,6.50
2009,09,30,06,09,6.50
2009,09,30,06,10,6.50
2009,09,30,06,11,6.60
2009,09,30,06,12,6.60
2009,09,30,06,13,6.60
2009,09,30,06,14,6.60
2009,09,30,06,15,6.60
2009,09,30,06,16,6.60
2009,09,30,06,17,6.60
2009,09,30,06,18,6.60
2009,09,30,06,19,6.60
2009,09,30,06,20,6.60
2009,09,30,06,21,6.60
2009,09,30,06,22,6.60
2009,09,30,06,23,6.60
2009,09,30,06,24,6.50
2009,09,30,06,25,6.50
2009,09,30,06,26,6.60
2009,09,30,06,27,6.60
2009,09,30,06,28,6.60
2009,09,30,06,29,6.60
2009,09,30,06,30,6.60
2009,09,30,06,31,6.60
2009,09,30,06,32,6.60
2009,09,30,06,33,6.60
2009,09,30,06,34,6.60
2009,09,30,06,35,6.60
2009,09,30,06,36,6.60
2009,09,30,06,37,6.60
2009,09,30,06,38,6.60
2009,09,30,06,39,6.60
2009,09,30,06,40,6.60
2009,09,30,06,41,6.60
2009,09,30,06,42,6.70
2009,09,30,06,43,6.70
2009,09,30,06,44,6.70
2009,09,30,06,45,6.70
2009,09,30,06,46,6.70
2009,09,30,06,47,6.70
2009,09,30,06,48,6.70
2009,09,30,06,49,6.70
2009,09,30,06,50,6.70
2009,09,30,06,51,6.60
2009,09,30,06,52,6.60
2009,09,30,06,53,6.60
2009,09,30,06,54,6.60
2009,09,30,06,55,6.60
2009,09,30,06,56,6.60
2009,09,30,06,57,6.60
2009,09,30,06,58,6.60
2009,09,30,06,59,6.60
2009,09,30,07,00,6.60
2009,09,30,07,01,6.60
2009,09,30,07,02,6.60
2009,09,30,07,03,6.60
2009,09,30,07,04,6.60
2009,09,30,07,05,6.60
2009,09,30,07,06,6.60
2009,09,30,07,07,6.60
2009,09,30,07,08,6.60
2009,09,30,07,09,6.60
2009,09,30,07,10,6.60
2009,09,30,07,11,6.60
2009,09,30,07,12,6.60
2009,09,30,07,13,6.70
2009,09,30,07,14,6.70
2009,09,30,07,15,6.70
2009,09,30,07,16,6.70
2009,09,30,07,17,6.70
2009,09,30,07,18,6.70
2009,09,30,07,19,6.70
2009,09,30,07,20,6.70
2009,09,30,07,21,6.60
2009,09,30,07,22,6.60
2009,09,30,07,23,6.60
2009,09,30,07,24,6.60
2009,09,30,07,25,6.60
2009,09,30,07,26,6.60
2009,09,30,07,27,6.60
2009,09,30,07,28,6.60
2009,09,30,07,29,6.60
2009,09,30,07,30,6.50
2009,09,30,07,31,6.50
2009,09,30,07,32,6.50
2009,09,30,07,33,6.50
2009,09,30,07,34,6.50
2009,09,30,07,35,6.40
2009,09,30,07,36,6.40
2009,09,30,07,37,6.40
2009,09,30,07,38,6.40
2009,09,30,07,39,6.40
2009,09,30,07,40,6.40
2009,09,30,07,41,6.40
2009,09,30,07,42,6.40
2009,09,30,07,43,6.40
2009,09,30,07,44,6.40
2009,09,30,07,45,6.50
2009,09,30,07,46,6.50
2009,09,30,07,47,6.50
2009,09,30,07,48,6.50
2009,09,30,07,49,6.50
2009,09,30,07,50,6.50
2009,09,30,07,51,6.50
2009,09,30,07,52,6.50
2009,09,30,07,53,6.50
2009,09,30,07,54,6.50
2009,09,30,07,55,6.60
2009,09,30,07,56,6.60
2009,09,30,07,57,6.60
2009,09,30,07,58,6.60
2009,09,30,07,59,6.60
2009,09,30,08,00,6.60
2009,09,30,08,01,6.60
2009,09,30,08,02,6.60
2009,09,30,08,03,6.50
2009,09,30,08,04,6.60
2009,09,30,08,05,6.60
2009,09,30,08,06,6.60
2009,09,30,08,07,6.50
2009,09,30,08,08,6.50
2009,09,30,08,09,6.50
2009,09,30,08,10,6.50
2009,09,30,08,11,6.50
2009,09,30,08,12,6.50
2009,09,30,08,13,6.50
2009,09,30,08,14,6.50
2009,09,30,08,15,6.50
2009,09,30,08,16,6.50
2009,09,30,08,17,6.50
2009,09,30,08,18,6.50
2009,09,30,08,19,6.50
2009,09,30,08,20,6.50
2009,09,30,08,21,6.50
2009,09,30,08,22,6.50
2009,09,30,08,23,6.50
2009,09,30,08,24,6.50
2009,09,30,08,25,6.50
2009,09,30,08,26,6.60
2009,09,30,08,27,6.60
2009,09,30,08,28,6.60
2009,09,30,08,29,6.60
2009,09,30,08,30,6.60
2009,09,30,08,31,6.60
2009,09,30,08,32,6.60
2009,09,30,08,33,6.60
2009,09,30,08,34,6.70
2009,09,30,08,35,6.70
2009,09,30,08,36,6.70
2009,09,30,08,37,6.70
2009,09,30,08,38,6.70
2009,09,30,08,39,6.70
2009,09,30,08,40,6.80
2009,09,30,08,41,6.80
2009,09,30,08,42,6.80
2009,09,30,08,43,6.80
2009,09,30,08,44,6.80
2009,09,30,08,45,6.90
2009,09,30,08,46,6.90
2009,09,30,08,47,6.90
2009,09,30,08,48,6.90
2009,09,30,08,49,7.00
2009,09,30,08,50,7.00
2009,09,30,08,51,7.00
2009,09,30,08,52,7.10
2009,09,30,08,53,7.10
2009,09,30,08,54,7.10
2009,09,30,08,55,7.10
2009,09,30,08,56,7.10
2009,09,30,08,57,7.10
2009,09,30,08,58,7.10
2009,09,30,08,59,7.10
2009,09,30,09,00,7.10
2009,09,30,09,01,7.20
2009,09,30,09,02,7.20
2009,09,30,09,03,7.20
2009,09,30,09,04,7.20
2009,09,30,09,05,7.20
2009,09,30,09,06,7.20
2009,09,30,09,07,7.20
2009,09,30,09,08,7.20
2009,09,30,09,09,7.20
2009,09,30,09,10,7.20
2009,09,30,09,11,7.20
2009,09,30,09,12,7.20
2009,09,30,09,13,7.20
2009,09,30,09,14,7.30
2009,09,30,09,15,7.30
2009,09,30,09,16,7.40
2009,09,30,09,17,7.40
2009,09,30,09,18,7.50
2009,09,30,09,19,7.60
2009,09,30,09,20,7.60
2009,09,30,09,21,7.70
2009,09,30,09,22,7.80
2009,09,30,09,23,7.80
2009,09,30,09,24,7.90
2009,09,30,09,25,8.00
2009,09,30,09,26,8.00
2009,09,30,09,27,8.10
2009,09,30,09,28,8.20
2009,09,30,09,29,8.30
2009,09,30,09,30,8.30
2009,09,30,09,31,8.40
2009,09,30,09,32,8.50
2009,09,30,09,33,8.60
2009,09,30,09,34,8.60
2009,09,30,09,35,8.70
2009,09,30,09,36,8.70
2009,09,30,09,37,8.80
2009,09,30,09,38,8.80
2009,09,30,09,39,8.80
2009,09,30,09,40,8.90
2009,09,30,09,41,9.00
2009,09,30,09,42,9.10
2009,09,30,09,43,9.20
2009,09,30,09,44,9.30
2009,09,30,09,45,9.40
2009,09,30,09,46,9.50
2009,09,30,09,47,9.60
2009,09,30,09,48,9.70
2009,09,30,09,49,9.70
2009,09,30,09,50,9.80
2009,09,30,09,51,9.90
2009,09,30,09,52,10.00
2009,09,30,09,53,10.10
2009,09,30,09,54,10.20
2009,09,30,09,55,10.20
2009,09,30,09,56,10.20
2009,09,30,09,57,10.10
2009,09,30,09,58,10.10
2009,09,30,09,59,10.10
2009,09,30,10,00,10.10
2009,09,30,10,01,10.10
2009,09,30,10,02,10.10
2009,09,30,10,03,10.10
2009,09,30,10,04,10.10
2009,09,30,10,05,10.10
2009,09,30,10,06,10.20
2009,09,30,10,07,10.20
2009,09,30,10,08,10.20
2009,09,30,10,09,10.20
2009,09,30,10,10,10.20
2009,09,30,10,11,10.20
2009,09,30,10,12,10.20
2009,09,30,10,13,10.20
2009,09,30,10,14,10.20
2009,09,30,10,15,10.20
2009,09,30,10,16,10.20
2009,09,30,10,17,10.20
2009,09,30,10,18,10.20
2009,09,30,10,19,10.10
2009,09,30,10,20,10.10
2009,09,30,10,21,10.10
2009,09,30,10,22,10.10
2009,09,30,10,23,10.10
2009,09,30,10,24,10.10
2009,09,30,10,25,10.10
2009,09,30,10,26,10.10
2009,09,30,10,27,10.10
2009,09,30,10,28,10.00
2009,09,30,10,29,10.00
2009,09,30,10,30,10.00
2009,09,30,10,31,9.90
2009,09,30,10,32,9.90
2009,09,30,10,33,9.90
2009,09,30,10,34,9.90
2009,09,30,10,35,10.00
2009,09,30,10,36,9.90
2009,09,30,10,37,9.90
2009,09,30,10,38,9.90
2009,09,30,10,39,10.00
2009,09,30,10,40,10.00
2009,09,30,10,41,10.00
2009,09,30,10,42,9.90
2009,09,30,10,43,9.90
2009,09,30,10,44,9.90
2009,09,30,10,45,9.90
2009,09,30,10,46,9.90
2009,09,30,10,47,9.90
2009,09,30,10,48,9.90
2009,09,30,10,49,9.90
2009,09,30,10,50,9.80
2009,09,30,10,51,9.80
2009,09,30,10,52,9.80
2009,09,30,10,53,9.80
2009,09,30,10,54,9.80
2009,09,30,10,55,9.70
2009,09,30,10,56,9.70
2009,09,30,10,57,9.70
2009,09,30,10,58,9.70
2009,09,30,10,59,9.70
2009,09,30,11,00,9.80
2009,09,30,11,01,9.80
2009,09,30,11,02,9.80
2009,09,30,11,03,9.80
2009,09,30,11,04,9.80
2009,09,30,11,05,9.80
2009,09,30,11,06,9.80
2009,09,30,11,07,9.80
2009,09,30,11,08,9.80
2009,09,30,11,09,9.80
2009,09,30,11,10,9.90
2009,09,30,11,11,9.90
2009,09,30,11,12,10.00
2009,09,30,11,13,10.00
2009,09,30,11,14,10.10
2009,09,30,11,15,10.20
2009,09,30,11,16,10.40
2009,09,30,11,17,10.50
2009,09,30,11,18,10.70
2009,09,30,11,19,10.80
2009,09,30,11,20,10.90
2009,09,30,11,21,11.10
2009,09,30,11,22,11.20
2009,09,30,11,23,11.20
2009,09,30,11,24,11.20
2009,09,30,11,25,11.30
2009,09,30,11,26,11.40
2009,09,30,11,27,11.50
2009,09,30,11,28,11.60
2009,09,30,11,29,11.70
2009,09,30,11,30,11.80
2009,09,30,11,31,11.90
2009,09,30,11,32,12.10
2009,09,30,11,33,12.20
2009,09,30,11,34,12.30
2009,09,30,11,35,12.30
2009,09,30,11,36,12.40
2009,09,30,11,37,12.40
2009,09,30,11,38,12.40
2009,09,30,11,39,12.40
2009,09,30,11,40,12.40
2009,09,30,11,41,12.50
2009,09,30,11,42,12.60
2009,09,30,11,43,12.70
2009,09,30,11,44,12.80
2009,09,30,11,45,12.80
2009,09,30,11,46,12.90
2009,09,30,11,47,12.90
2009,09,30,11,48,13.00
2009,09,30,11,49,13.00
2009,09,30,11,50,13.10
2009,09,30,11,51,13.10
2009,09,30,11,52,13.20
2009,09,30,11,53,13.20
2009,09,30,11,54,13.20
2009,09,30,11,55,13.20
2009,09,30,11,56,13.40
2009,09,30,11,57,13.50
2009,09,30,11,58,13.60
2009,09,30,11,59,13.50
2009,09,30,12,00,13.40
2009,09,30,12,01,13.30
2009,09,30,12,02,13.10
2009,09,30,12,03,13.10
2009,09,30,12,04,13.10
2009,09,30,12,05,13.00
2009,09,30,12,06,13.00
2009,09,30,12,07,12.90
2009,09,30,12,08,12.80
2009,09,30,12,09,12.80
2009,09,30,12,10,12.90
2009,09,30,12,11,12.90
2009,09,30,12,12,12.90
2009,09,30,12,13,13.00
2009,09,30,12,14,13.00
2009,09,30,12,15,13.10
2009,09,30,12,16,13.20
2009,09,30,12,17,13.30
2009,09,30,12,18,13.30
2009,09,30,12,19,13.30
2009,09,30,12,20,13.40
2009,09,30,12,21,13.30
2009,09,30,12,22,13.40
2009,09,30,12,23,13.40
2009,09,30,12,24,13.40
2009,09,30,12,25,13.20
2009,09,30,12,26,13.20
2009,09,30,12,27,13.20
2009,09,30,12,28,13.20
2009,09,30,12,29,13.20
2009,09,30,12,30,13.10
2009,09,30,12,31,13.00
2009,09,30,12,32,13.00
2009,09,30,12,33,13.00
2009,09,30,12,34,13.00
2009,09,30,12,35,13.00
2009,09,30,12,36,13.10
2009,09,30,12,37,13.00
2009,09,30,12,38,13.10
2009,09,30,12,39,13.10
2009,09,30,12,40,13.20
2009,09,30,12,41,13.10
2009,09,30,12,42,13.00
2009,09,30,12,43,12.90
2009,09,30,12,44,12.80
2009,09,30,12,45,12.80
2009,09,30,12,46,12.80
2009,09,30,12,47,13.00
2009,09,30,12,48,13.10
2009,09,30,12,49,13.30
2009,09,30,12,50,13.30
2009,09,30,12,51,13.30
2009,09,30,12,52,13.30
2009,09,30,12,53,13.40
2009,09,30,12,54,13.40
2009,09,30,12,55,13.40
2009,09,30,12,56,13.40
2009,09,30,12,57,13.30
2009,09,30,12,58,13.20
2009,09,30,12,59,13.20
2009,09,30,13,00,13.10
2009,09,30,13,01,13.20
2009,09,30,13,02,13.20
2009,09,30,13,03,13.20
2009,09,30,13,04,13.30
2009,09,30,13,05,13.30
2009,09,30,13,06,13.30
2009,09,30,13,07,13.30
2009,09,30,13,08,13.40
2009,09,30,13,09,13.30
2009,09,30,13,10,13.30
2009,09,30,13,11,13.30
2009,09,30,13,12,13.30
2009,09,30,13,13,13.30
2009,09,30,13,14,13.30
2009,09,30,13,15,13.40
2009,09,30,13,16,13.50
2009,09,30,13,17,13.60
2009,09,30,13,18,13.60
2009,09,30,13,19,13.60
2009,09,30,13,20,13.70
2009,09,30,13,21,13.70
2009,09,30,13,22,13.70
2009,09,30,13,23,13.70
2009,09,30,13,24,13.60
2009,09,30,13,25,13.60
2009,09,30,13,26,13.60
2009,09,30,13,27,13.60
2009,09,30,13,28,13.70
2009,09,30,13,29,13.70
2009,09,30,13,30,13.70
2009,09,30,13,31,13.70
2009,09,30,13,32,13.80
2009,09,30,13,33,13.80
2009,09,30,13,34,13.90
2009,09,30,13,35,13.80
2009,09,30,13,36,13.80
2009,09,30,13,37,13.80
2009,09,30,13,38,13.90
2009,09,30,13,39,13.90
2009,09,30,13,40,13.90
2009,09,30,13,41,13.90
2009,09,30,13,42,13.90
2009,09,30,13,43,13.90
2009,09,30,13,44,13.90
2009,09,30,13,45,13.90
2009,09,30,13,46,14.00
2009,09,30,13,47,14.10
2009,09,30,13,48,14.00
2009,09,30,13,49,13.90
2009,09,30,13,50,13.90
2009,09,30,13,51,13.90
2009,09,30,13,52,13.90
2009,09,30,13,53,13.90
2009,09,30,13,54,13.90
2009,09,30,13,55,13.80
2009,09,30,13,56,13.80
2009,09,30,13,57,13.80
2009,09,30,13,58,13.80
2009,09,30,13,59,13.80
2009,09,30,14,00,13.80
2009,09,30,14,01,13.90
2009,09,30,14,02,13.80
2009,09,30,14,03,13.90
2009,09,30,14,04,14.00
2009,09,30,14,05,14.10
2009,09,30,14,06,14.20
2009,09,30,14,07,14.20
2009,09,30,14,08,14.30
2009,09,30,14,09,14.20
2009,09,30,14,10,14.10
2009,09,30,14,11,14.00
2009,09,30,14,12,13.90
2009,09,30,14,13,13.90
2009,09,30,14,14,13.90
2009,09,30,14,15,13.90
2009,09,30,14,16,14.00
2009,09,30,14,17,14.00
2009,09,30,14,18,14.00
2009,09,30,14,19,14.10
2009,09,30,14,20,14.10
2009,09,30,14,21,14.10
2009,09,30,14,22,14.10
2009,09,30,14,23,14.00
2009,09,30,14,24,13.90
2009,09,30,14,25,13.90
2009,09,30,14,26,14.00
2009,09,30,14,27,14.10
2009,09,30,14,28,14.00
2009,09,30,14,29,14.00
2009,09,30,14,30,14.00
2009,09,30,14,31,13.90
2009,09,30,14,32,13.90
2009,09,30,14,33,13.90
2009,09,30,14,34,13.90
2009,09,30,14,35,14.00
2009,09,30,14,36,14.00
2009,09,30,14,37,13.90
2009,09,30,14,38,14.00
2009,09,30,14,39,14.00
2009,09,30,14,40,14.10
2009,09,30,14,41,14.00
2009,09,30,14,42,14.00
2009,09,30,14,43,14.00
2009,09,30,14,44,14.00
2009,09,30,14,45,14.00
2009,09,30,14,46,13.90
2009,09,30,14,47,13.90
2009,09,30,14,48,13.80
2009,09,30,14,49,13.80
2009,09,30,14,50,13.70
2009,09,30,14,51,13.70
2009,09,30,14,52,13.70
2009,09,30,14,53,13.70
2009,09,30,14,54,13.70
2009,09,30,14,55,13.70
2009,09,30,14,56,13.80
2009,09,30,14,57,13.90
2009,09,30,14,58,14.10
2009,09,30,14,59,14.10
2009,09,30,15,00,14.10
2009,09,30,15,01,14.10
2009,09,30,15,02,14.20
2009,09,30,15,03,14.10
2009,09,30,15,04,14.10
2009,09,30,15,05,14.00
2009,09,30,15,06,14.00
2009,09,30,15,07,14.00
2009,09,30,15,08,14.00
2009,09,30,15,09,14.00
2009,09,30,15,10,14.00
2009,09,30,15,11,13.90
2009,09,30,15,12,13.90
2009,09,30,15,13,13.90
2009,09,30,15,14,13.90
2009,09,30,15,15,13.90
2009,09,30,15,16,13.90
2009,09,30,15,17,13.90
2009,09,30,15,18,13.80
2009,09,30,15,19,13.80
2009,09,30,15,20,13.80
2009,09,30,15,21,13.70
2009,09,30,15,22,13.70
2009,09,30,15,23,13.70
2009,09,30,15,24,13.70
2009,09,30,15,25,13.80
2009,09,30,15,26,13.80
2009,09,30,15,27,13.90
2009,09,30,15,28,13.90
2009,09,30,15,29,13.90
2009,09,30,15,30,13.90
2009,09,30,15,31,13.90
2009,09,30,15,32,13.90
2009,09,30,15,33,13.90
2009,09,30,15,34,13.90
2009,09,30,15,35,13.90
2009,09,30,15,36,13.90
2009,09,30,15,37,13.80
2009,09,30,15,38,13.80
2009,09,30,15,39,13.80
2009,09,30,15,40,13.70
2009,09,30,15,41,13.70
2009,09,30,15,42,13.70
2009,09,30,15,43,13.70
2009,09,30,15,44,13.70
2009,09,30,15,45,13.70
2009,09,30,15,46,13.70
2009,09,30,15,47,13.70
2009,09,30,15,48,13.70
2009,09,30,15,49,13.70
2009,09,30,15,50,13.70
2009,09,30,15,51,13.70
2009,09,30,15,52,13.80
2009,09,30,15,53,13.70
2009,09,30,15,54,13.70
2009,09,30,15,55,13.80
2009,09,30,15,56,13.70
2009,09,30,15,57,13.70
2009,09,30,15,58,13.70
2009,09,30,15,59,13.70
2009,09,30,16,00,13.70
2009,09,30,16,01,13.70
2009,09,30,16,02,13.70
2009,09,30,16,03,13.70
2009,09,30,16,04,13.70
2009,09,30,16,05,13.70
2009,09,30,16,06,13.60
2009,09,30,16,07,13.60
2009,09,30,16,08,13.60
2009,09,30,16,09,13.50
2009,09,30,16,10,13.50
2009,09,30,16,11,13.50
2009,09,30,16,12,13.50
2009,09,30,16,13,13.50
2009,09,30,16,14,13.50
2009,09,30,16,15,13.50
2009,09,30,16,16,13.50
2009,09,30,16,17,13.50
2009,09,30,16,18,13.60
2009,09,30,16,19,13.60
2009,09,30,16,20,13.60
2009,09,30,16,21,13.60
2009,09,30,16,22,13.60
2009,09,30,16,23,13.60
2009,09,30,16,24,13.60
2009,09,30,16,25,13.60
2009,09,30,16,26,13.60
2009,09,30,16,27,13.60
2009,09,30,16,28,13.60
2009,09,30,16,29,13.60
2009,09,30,16,30,13.60
2009,09,30,16,31,13.60
2009,09,30,16,32,13.60
2009,09,30,16,33,13.60
2009,09,30,16,34,13.60
2009,09,30,16,35,13.50
2009,09,30,16,36,13.50
2009,09,30,16,37,13.60
2009,09,30,16,38,13.60
2009,09,30,16,39,13.60
2009,09,30,16,40,13.60
2009,09,30,16,41,13.60
2009,09,30,16,42,13.60
2009,09,30,16,43,13.60
2009,09,30,16,44,13.60
2009,09,30,16,45,13.50
2009,09,30,16,46,13.60
2009,09,30,16,47,13.60
2009,09,30,16,48,13.60
2009,09,30,16,49,13.60
2009,09,30,16,50,13.60
2009,09,30,16,51,13.60
2009,09,30,16,52,13.60
2009,09,30,16,53,13.60
2009,09,30,16,54,13.60
2009,09,30,16,55,13.60
2009,09,30,16,56,13.60
2009,09,30,16,57,13.60
2009,09,30,16,58,13.70
2009,09,30,16,59,13.70
2009,09,30,17,00,13.70
2009,09,30,17,01,13.70
2009,09,30,17,02,13.70
2009,09,30,17,03,13.70
2009,09,30,17,04,13.70
2009,09,30,17,05,13.60
2009,09,30,17,06,13.60
2009,09,30,17,07,13.50
2009,09,30,17,08,13.40
2009,09,30,17,09,13.40
2009,09,30,17,10,13.40
2009,09,30,17,11,13.30
2009,09,30,17,12,13.30
2009,09,30,17,13,13.20
2009,09,30,17,14,13.20
2009,09,30,17,15,13.20
2009,09,30,17,16,13.20
2009,09,30,17,17,13.20
2009,09,30,17,18,13.20
2009,09,30,17,19,13.20
2009,09,30,17,20,13.10
2009,09,30,17,21,13.10
2009,09,30,17,22,13.10
2009,09,30,17,23,13.10
2009,09,30,17,24,13.10
2009,09,30,17,25,13.10
2009,09,30,17,26,13.10
2009,09,30,17,27,13.10
2009,09,30,17,28,13.10
2009,09,30,17,29,13.10
2009,09,30,17,30,13.10
2009,09,30,17,31,13.00
2009,09,30,17,32,13.00
2009,09,30,17,33,13.00
2009,09,30,17,34,13.00
2009,09,30,17,35,12.90
2009,09,30,17,36,12.90
2009,09,30,17,37,12.90
2009,09,30,17,38,12.90
2009,09,30,17,39,12.90
2009,09,30,17,40,12.90
2009,09,30,17,41,12.90
2009,09,30,17,42,12.80
2009,09,30,17,43,12.80
2009,09,30,17,44,12.80
2009,09,30,17,45,12.80
2009,09,30,17,46,12.80
2009,09,30,17,47,12.80
2009,09,30,17,48,12.80
2009,09,30,17,49,12.70
2009,09,30,17,50,12.70
2009,09,30,17,51,12.70